Location: Gleizolles
(44.4833°N, 6.7667°E)
Time: 02:27:23
(UTC+00:00)

Vanguard 1 Rocket - Pass Details

Date: 24 June 2024
Orbit: 650 x 4219 km, 34.3° (Epoch: 15 July)

Event Time Altitude Azimuth Distance (km) Brightness Sun altitude
Rises 23:41:05 0° 218° (SW) 4,769 - -22.1°
Reaches altitude 10° 23:43:54 10° 211° (SSW) 4,150 - -22.1°
Exits shadow 23:49:10 30° 187° (S) 3,442 9.7 -22.1°
Maximum altitude 23:54:54 41° 145° (SE) 3,542 10.0 -22.0°
Drops below altitude 10° 00:13:51 10° 86° (E) 7,007 12.0 -21.6°
Sets 00:20:30 0° 81° (E) 8,321 12.6 -21.4°
